レモン彗星

C/2017 S7 ( Lemmon )

English version
Home page
Updated on November 23, 2017

---------------------------------------------------------------------

・ プロフィール

発見日 2017年9月26日
発見光度 19.6等
発見者 R. G. Matheny (Mount Lemmon survey)

・ 写真集

・ 軌道要素

Epoch 2017 June 16.0 TT = JDT 2457920.5
T 2017 May 27.70723 TT                                  MPCW
q   7.6143992            (2000.0)            P               Q
z  -0.0002937      Peri.  187.73519     +0.19950966     +0.53594171
 +/-0.0000173      Node   262.78694     +0.93748975     +0.13921823
e   1.0022366      Incl.  124.21975     +0.28514710     -0.83269729
From 89 observations 2016 Dec. 18-2017 Oct. 16, mean residual 0".5.

・ 光度変化

        m1 = 6.5 + 5 logΔ + 10.0 log r

---------------------------------------------------------------------

軌道要素はM.P.E.C. 2017-V13に掲載されたものです。
光度グラフはComet for Windowsで作成したものです。

---------------------------------------------------------------------

Copyright(C) Seiichi Yoshida (comet@aerith.net). All rights reserved.